Regional Weather Roundup
Issued by NWS Wilmington, NC

Home | Current Version | Previous Version | Text Only | Print | Product List | Glossary On
Versions: 1 2 3 4 5 6 7 8 9 10 11 12 13 14 15 16 17 18 19 20 21 22 23 24 25 26 27 28
000
ASUS42 KILM 260213
RWRILM
RWRILM
REGIONAL HOURLY WEATHER ROUNDUP
NATIONAL WEATHER SERVICE WILMINGTON NC
1000 PM EDT SUN SEP 25 2016

NOTE: "FAIR" INDICATES FEW OR NO CLOUDS BELOW 12,000 FEET WITH NO
SIGNIFICANT WEATHER AND/OR OBSTRUCTIONS TO VISIBILITY.

...............WFO WILMINGTON COUNTY WARNING AREA...............

......COASTAL NC AND SC COUNTIES......

CITY           SKY/WX    TMP DP  RH WIND       PRES   REMARKS
WILMINGTON     PTCLDY    70  64  81 NE5       30.12F
N MYRTLE BEACH CLOUDY    77  68  73 E13G21    30.10S
MYRTLE BEACH   CLOUDY    79  64  61 E9        30.12R

......INLAND NC AND SC COUNTIES.......

CITY           SKY/WX    TMP DP  RH WIND       PRES   REMARKS
LUMBERTON      CLOUDY    74  70  87 E7        30.12R
ELIZABETHTOWN  CLOUDY    73  67  81 E3        30.13S
WHITEVILLE     NOT AVBL
FLORENCE       MOCLDY    75  71  87 SE3       30.11R
DARLINGTON     MOCLDY    76  73  91 E6        30.11R
KINGSTREE      FAIR      72  70  94 CALM      30.10S
HARTSVILLE     MOCLDY    73  70  88 E7        30.10R
BENNETTSVILLE  MOCLDY    75  72  88 NE8       30.11R
CONWAY         FAIR      73  72  94 NE3       30.11R
GEORGETOWN     MOCLDY    77  72  83 E7        30.10S
MARION         MOCLDY    72  70  94 E5        30.11S

....................REST OF NORTH CAROLINA......................

.........EASTERN NC.........

CITY           SKY/WX    TMP DP  RH WIND       PRES   REMARKS
CAPE HATTERAS  CLEAR     69  58  67 NE7       30.15S
JACKSONVILLE   CLOUDY    70  63  78 E6        30.15R
MOREHEAD CITY  CLOUDY    72  61  68 NE6       30.14S
KENANSVILLE    CLOUDY    70  64  83 CALM      30.15S
NEW BERN       PTCLDY    69  60  73 NE7       30.17R
ELIZABETH CITY CLOUDY    68  58  70 E6        30.17S

.........CENTRAL NC.........

CITY           SKY/WX    TMP DP  RH WIND       PRES   REMARKS
RALEIGH DURHAM CLOUDY    70  64  81 E6        30.16R
ROCKY MOUNT    CLEAR     66  65  96 CALM      30.16R
ROANOKE RAPIDS NOT AVBL
FAYETTEVILLE   CLOUDY    73  66  78 E8        30.14R
HOFFMAN        MOCLDY    73  68  86 E8        30.13R

.........WESTERN NC.........

CITY           SKY/WX    TMP DP  RH WIND       PRES   REMARKS
CHARLOTTE      CLOUDY    80  68  66 E8        30.11R
GREENSBORO     CLOUDY    70  68  93 SE7       30.15R
HICKORY        NOT AVBL
BOONE          NOT AVBL
ASHEVILLE      NOT AVBL

.....................REST OF SOUTH CAROLINA.....................

.........EASTERN SC.........

CITY           SKY/WX    TMP DP  RH WIND       PRES   REMARKS
CHARLESTON     PTCLDY    76  71  85 NE5       30.08R
BEAUFORT MCAS  CLEAR     78  74  87 NE5       30.07R
HILTON HEAD    MOCLDY    81  75  83 E9        30.07S

.........CENTRAL SC.........

CITY           SKY/WX    TMP DP  RH WIND       PRES   REMARKS
COLUMBIA       CLEAR     78  69  73 SE5       30.08R
ORANGEBURG     CLEAR     76  70  82 SE6       30.09R
SUMTER SHAW    CLEAR     76  71  84 SE7       30.07R

.........WESTERN SC.........

CITY           SKY/WX    TMP DP  RH WIND       PRES   REMARKS
GREENVILLE     NOT AVBL
ROCK HILL      PTCLDY    77  70  79 SE5       30.11R
ANDERSON       CLEAR     79  65  62 SE6       30.08R
CLEMSON        NOT AVBL
GREENWOOD      PTCLDY    77  66  68 S7        30.10R


...................COASTAL AND OFFSHORE REPORTS..................

................LOCAL PIERS AND NC RESERVE................


STATION/POSITION TIME  SKY/WX   TEMP    WIND        PRES    VSBY
                                AIR SEA DIR/SP/G
                 (UTC)          (F)     (DEG/KT/KT) (MB)    (MI)
JOHNY MRCER PIER 0148            76 83   70/ 17/ 20   N/A
NC RESRV MASNBRO 0045            76     100/  7     1019.0
OCEAN CREST PIER NOT AVBL
SPRINGMAID  PIER 0148            79 83   50/ 15/ 17   N/A


................COASTAL AND OFFSHORE BUOYS................


STATION/POSITION TIME  SKY/WX   TEMP    WIND        PRES    VSBY
                                AIR SEA DIR/SP/G
                 (UTC)          (F)     (DEG/KT/KT) (MB)    (MI)
DIMNDSHOAL 41025 0150            74 85   40/ 16/ 17 1020.4R
WVE H/P(F/S)=  4/ 9 SWL H/P/D(F/S/D)=  3/ 60/ 9

CAPE LOOKOUT     0200            74      50/ 15/ 18 1020.4S
ONSLOW BAY 41036 NOT AVBL
ONSLOW BAY 41064 0108            76 81   70/ 16/ 19 1020.3R
ONSLOW BAY 41159 0155               81                N/A
WVE H/P(F/S)=  5/ 6

5SE WRITBC 41038 0108            77 81   80/ 17/ 21 1020.9R
MASNBO INL 41110 0059               81                N/A
WVE H/P(F/S)=  4/ 5

WILM HARBR 41108 0056               81                N/A
WVE H/P(F/S)=  4/10

27SE WRITB 41037 0108            77 81   70/ 16/ 23 1019.9R
FRYING PAN 41013 0150            79 82   60/ 17/ 21 1019.0R
WVE H/P(F/S)=  5/ 5 SWL H/P/D(F/S/D)=  2/120/ 9

SUNST NRSH 41024 0108            78 81   90/ 17/ 23 1019.0R
CAPRS NRSH 41029 0108            81 81   80/ 16/ 19 1017.9R
EDISTO     41004 0150            81 82   70/ 16/ 19 1017.3R
WVE H/P(F/S)=  5/10 SWL H/P/D(F/S/D)=  3/ 90/10



..........OFFSHORE BUOYS BEYOND 100 NM OFFSHORE...........
.....IN A TRIANGLE---HAT TO BERMUDA TO BAHAMAS TO HAT.....


STATION/POSITION TIME  SKY/WX   TEMP    WIND        PRES    VSBY
                                AIR SEA DIR/SP/G
                 (UTC)          (F)     (DEG/KT/KT) (MB)    (MI)
150E HAT   41001 NOT AVBL
W BERMUDA  41048 0150            80 84   10/ 16/ 17 1016.3R
WVE H/P(F/S)=  5/ 6 SWL H/P/D(F/S/D)=  2/ 70/ 9

ATLANTIC S 41049 0150            82 84  280/  6/  8 1015.6R
WVE H/P(F/S)=  6/11 SWL H/P/D(F/S/D)=  5/ 80/11

E BAHAMAS  41046 0200            84 86   70/  4/  6 1016.0
NE BAHAMAS 41047 0200            84 86   50/  2/  4 1016.0
120E CANVRL41010 NOT AVBL

END




USA.gov is the U.S. government's official web portal to all federal, state and local government web resources and services.